FENGYUN 4A (41882 NORAD) Tracking and Keplerian Element Data

This shows tracking and keplerian element data for the satellite.

Feedback or suggestion? Click here.




ElementValue
Catalog41882
NameFENGYUN 4A
Epoch Orbit879
Epoch Day113.92549448
Epoch Year2019
RAAN288.2494
Inclination0.1773
Eccentricity0.0004765
Argument of Perigee221.5066
Mean Anonmoly139.7079
Mean Motion1.00276193
Decay Rate-3.46E-06
L11 41882U 16077A 19113.92549448 -.00000346 00000-0 00000+0 0 9997
L22 41882 0.1773 288.2494 0004765 221.5066 139.7079 1.00276193 8793

Live tracking and technical data element details for FENGYUN 4A (NORAD 41882). FENGYUN 4A can be tracked NOW for your location showing map with azimuth and elevation plus other details from your city location.

Track the satellite on the map from your city or location and see movement details for azimuth, elevation, latitude, longitude, range, height, and movement on the map or in text.







IsCatalogInMostPopularTable: catalog: 41882, numindb: 192
Update: records affected: 1



GetName: 41882 FENGYUN 4A

Hit Count: updated at: Wed, 24 Apr 2019 18:45:34 GMT